Location: Poughquag
(41.6090°N, 73.6820°W)
Time: 10:15:28
(UTC-05:00)

SR - Pass Details

Date: 12 December 2023
Orbit: 574 x 868 km, 66.7° (Epoch: 25 February)

Event Time Altitude Azimuth Distance (km) Brightness Sun altitude
Rises 17:42:38 0° 333° (NNW) 3,446 ? -14.1°
Reaches altitude 10° 17:45:17 10° 340° (NNW) 2,487 ? -14.5°
Maximum altitude 17:50:50 46° 53° (NE) 1,091 ? -15.5°
Drops below altitude 10° 17:56:01 10° 127° (SE) 2,329 ? -16.4°
Enters shadow 17:56:08 - 127° (SE) 2,372 ? -16.5°
Sets 17:58:25 0° 133° (SE) 3,207 - -16.9°
